Location: Beuerbach
(48.1459°N, 10.9174°E)
Time: 20:49:35
(UTC+00:00)

SL-16 R/B - Pass Details

Date: 14 August 2024
Orbit: 842 x 845 km, 71.0° (Epoch: 07 September)

Event Time Altitude Azimuth Distance (km) Brightness Sun altitude
Exits shadow 23:59:29 30° 274° (W) 1,490 3.4 -27.0°
Maximum altitude 00:01:13 36° 309° (NW) 1,318 3.4 -26.9°
Drops below altitude 10° 00:06:26 10° 16° (NNE) 2,476 5.6 -26.8°
Sets 00:09:06 0° 25° (NNE) 3,415 6.6 -26.7°
